Year,Month,Day,Hour,Minute,Value (Times are PST for temperature in C)
2015,03,29,13,34,10.50
2015,03,29,13,35,10.40
2015,03,29,13,36,10.40
2015,03,29,13,37,10.40
2015,03,29,13,38,10.50
2015,03,29,13,39,10.60
2015,03,29,13,40,10.60
2015,03,29,13,41,10.60
2015,03,29,13,42,10.60
2015,03,29,13,43,10.60
2015,03,29,13,44,10.60
2015,03,29,13,45,10.60
2015,03,29,13,46,10.60
2015,03,29,13,47,10.60
2015,03,29,13,48,10.60
2015,03,29,13,49,10.60
2015,03,29,14,06,10.40
2015,03,29,14,07,10.40
2015,03,29,14,08,10.40
2015,03,29,14,09,10.40
2015,03,29,14,10,10.50
2015,03,29,14,11,10.50
2015,03,29,14,12,10.50
2015,03,29,14,13,10.50
2015,03,29,14,14,10.40
2015,03,29,14,15,10.40
2015,03,29,14,16,10.40
2015,03,29,14,17,10.40
2015,03,29,14,18,10.40
2015,03,29,14,19,10.40
2015,03,29,14,20,10.40
2015,03,29,14,21,10.50
2015,03,29,14,22,10.50
2015,03,29,14,23,10.50
2015,03,29,14,24,10.50
2015,03,29,14,25,10.40
2015,03,29,14,26,10.40
2015,03,29,14,27,10.40
2015,03,29,14,28,10.40
2015,03,29,14,29,10.40
2015,03,29,14,30,10.40
2015,03,29,14,31,10.40
2015,03,29,14,32,10.40
2015,03,29,14,33,10.40
2015,03,29,14,34,10.50
2015,03,29,14,35,10.50
2015,03,29,14,36,10.50
2015,03,29,14,37,10.50
2015,03,29,14,38,10.50
2015,03,29,14,39,10.50
2015,03,29,14,40,10.50
2015,03,29,14,41,10.50
2015,03,29,14,42,10.50
2015,03,29,14,43,10.50
2015,03,29,14,44,10.50
2015,03,29,15,17,10.80
2015,03,29,15,18,10.80
2015,03,29,15,19,10.80
2015,03,29,15,20,10.80
2015,03,29,15,21,11.00
2015,03,29,15,22,11.00
2015,03,29,15,23,11.00
2015,03,29,15,24,11.00
2015,03,29,15,25,11.00
2015,03,29,15,26,11.10
2015,03,29,15,27,11.10
2015,03,29,15,28,11.10
2015,03,29,15,29,10.90
2015,03,29,15,30,10.80
2015,03,29,15,31,10.80
2015,03,29,15,32,10.80
2015,03,29,15,33,10.80
2015,03,29,15,34,10.80
2015,03,29,15,35,10.80
2015,03,29,15,36,10.80
2015,03,29,15,37,10.80
2015,03,29,15,38,10.80
2015,03,29,15,39,10.80
2015,03,29,15,40,10.80
2015,03,29,15,41,10.80
2015,03,29,15,42,10.80
2015,03,29,15,43,10.80
2015,03,29,15,44,10.70
2015,03,29,15,45,10.70
2015,03,29,15,46,10.70
2015,03,29,15,47,10.70
2015,03,29,15,48,10.70
2015,03,29,15,49,10.70
2015,03,29,15,50,10.70
2015,03,29,15,51,10.70
2015,03,29,15,52,10.70
2015,03,29,15,53,10.70
2015,03,29,15,54,10.70
2015,03,29,15,55,10.70
2015,03,29,16,11,10.30
2015,03,29,16,12,10.30
2015,03,29,16,13,10.30
2015,03,29,16,14,10.30
2015,03,29,16,15,10.30
2015,03,29,16,16,10.30
2015,03,29,16,17,10.30
2015,03,29,16,18,10.30
2015,03,29,16,19,10.30
2015,03,29,16,20,10.30
2015,03,29,16,21,10.30
2015,03,29,16,22,10.30
